TimeEDT,TemperatureF,Dew PointF,Humidity,Sea Level PressureIn,VisibilityMPH,Wind Direction,Wind SpeedMPH,Gust SpeedMPH,PrecipitationIn,Events,Conditions,WindDirDegrees,DateUTC
12:53 AM,61.0,55.9,83,30.17,10.0,Calm,Calm,-,N/A,,Clear,0,2012-10-04 04:53:00
1:53 AM,61.0,55.0,81,30.18,10.0,Calm,Calm,-,N/A,,Scattered Clouds,0,2012-10-04 05:53:00
2:53 AM,60.1,55.9,86,30.17,10.0,Calm,Calm,-,N/A,,Clear,0,2012-10-04 06:53:00
3:53 AM,59.0,55.9,90,30.17,10.0,Calm,Calm,-,N/A,,Partly Cloudy,0,2012-10-04 07:53:00
4:53 AM,57.9,55.9,93,30.18,9.0,Calm,Calm,-,N/A,,Clear,0,2012-10-04 08:53:00
5:53 AM,55.9,55.0,97,30.18,3.0,SE,4.6,-,N/A,,Clear,130,2012-10-04 09:53:00
6:53 AM,57.9,55.9,93,30.20,8.0,South,4.6,-,N/A,,Partly Cloudy,190,2012-10-04 10:53:00
7:53 AM,57.9,55.9,93,30.21,8.0,South,3.5,-,N/A,,Clear,190,2012-10-04 11:53:00
8:19 AM,59.0,55.4,88,30.21,6.0,South,4.6,-,N/A,,Partly Cloudy,170,2012-10-04 12:19:00
8:53 AM,59.0,57.0,93,30.22,9.0,Calm,Calm,-,N/A,,Clear,0,2012-10-04 12:53:00
9:53 AM,63.0,57.0,81,30.21,10.0,SW,5.8,-,N/A,,Mostly Cloudy,230,2012-10-04 13:53:00
10:53 AM,64.9,55.0,70,30.22,10.0,SW,8.1,-,N/A,,Partly Cloudy,230,2012-10-04 14:53:00
11:53 AM,69.1,54.0,58,30.21,10.0,West,12.7,20.7,N/A,,Partly Cloudy,260,2012-10-04 15:53:00
12:53 PM,70.0,51.1,51,30.20,10.0,West,10.4,17.3,N/A,,Mostly Cloudy,280,2012-10-04 16:53:00
1:53 PM,72.0,48.9,44,30.18,10.0,West,11.5,21.9,N/A,,Scattered Clouds,260,2012-10-04 17:53:00
2:53 PM,72.0,50.0,46,30.17,10.0,WSW,9.2,18.4,N/A,,Partly Cloudy,240,2012-10-04 18:53:00
3:53 PM,73.9,52.0,46,30.16,10.0,WSW,10.4,17.3,N/A,,Overcast,250,2012-10-04 19:53:00
4:53 PM,72.0,51.1,48,30.15,10.0,WSW,9.2,17.3,N/A,,Scattered Clouds,240,2012-10-04 20:53:00
6:53 PM,69.1,51.1,53,30.15,10.0,SW,5.8,-,N/A,,Scattered Clouds,230,2012-10-04 22:53:00
7:53 PM,64.9,52.0,63,30.16,10.0,SSW,5.8,-,N/A,,Clear,200,2012-10-04 23:53:00
8:53 PM,63.0,53.1,70,30.16,10.0,SSW,5.8,-,N/A,,Clear,210,2012-10-05 00:53:00
9:53 PM,63.0,53.1,70,30.16,10.0,SSW,5.8,-,N/A,,Clear,200,2012-10-05 01:53:00
10:53 PM,62.1,53.1,72,30.15,10.0,SSW,6.9,-,N/A,,Clear,210,2012-10-05 02:53:00
11:53 PM,61.0,53.1,75,30.15,10.0,SSW,6.9,-,N/A,,Clear,200,2012-10-05 03:53:00